CES9763 ZSCG-ZPPP

Flight info

Callsign CES9763
Flight time N/A
Altitude 34100
Route OBL51X/11 OBLAP G345 PIMUS V11 DOGVI W545 VEMEX W73 MADUK W51 LEGIV W164 ADGOL W50 XSH W80 IDGAG A581 QNX W136 XISLI
Aircraft A20N/M-SDE2E3FGILRWXY/LB2

Departure

Time N/A
Airport Changzhou Benniu International Airport (ZSCG)

Arrival

Time 2026-04-28 16:47
Airport Kunming Changshui International Airport (ZPPP)
Time Latitude Longitude Altitude Speed Heading
2026-04-28 14:56 30.15932 113.08225 34250 ft 385 kts 236°
2026-04-28 14:57 30.14510 113.05639 34251 ft 385 kts 236°
2026-04-28 14:57 30.11632 113.00421 34252 ft 385 kts 236°
2026-04-28 14:58 30.08762 112.95218 34249 ft 385 kts 236°
2026-04-28 14:58 30.05889 112.90024 34249 ft 385 kts 235°
2026-04-28 14:59 30.03008 112.84824 34255 ft 384 kts 236°
2026-04-28 14:59 30.00143 112.79655 34252 ft 385 kts 236°
2026-04-28 15:00 29.97253 112.74448 34254 ft 384 kts 235°
2026-04-28 15:00 29.94387 112.69293 34257 ft 384 kts 235°
2026-04-28 15:01 29.91495 112.64092 34252 ft 384 kts 235°
2026-04-28 15:01 29.88616 112.58926 34254 ft 385 kts 235°
2026-04-28 15:02 29.85734 112.53762 34256 ft 384 kts 235°
2026-04-28 15:02 29.82832 112.48567 34247 ft 384 kts 235°
2026-04-28 15:03 29.79945 112.43401 34253 ft 384 kts 235°
2026-04-28 15:03 29.77062 112.38253 34265 ft 384 kts 235°
2026-04-28 15:04 29.74176 112.33103 34267 ft 384 kts 234°
2026-04-28 15:04 29.71272 112.27960 34266 ft 384 kts 234°
2026-04-28 15:05 29.68364 112.22818 34269 ft 384 kts 234°
2026-04-28 15:05 29.65458 112.17691 34264 ft 384 kts 234°
2026-04-28 15:06 29.62545 112.12555 34266 ft 384 kts 234°
2026-04-28 15:06 29.59632 112.07420 34270 ft 384 kts 234°
2026-04-28 15:07 29.56734 112.02322 34264 ft 384 kts 234°
2026-04-28 15:07 29.53816 111.97193 34256 ft 384 kts 234°
2026-04-28 15:08 29.50878 111.92033 34251 ft 384 kts 234°
2026-04-28 15:08 29.47971 111.86936 34253 ft 384 kts 234°
2026-04-28 15:09 29.45040 111.81805 34253 ft 384 kts 234°
2026-04-28 15:09 29.42113 111.76684 34249 ft 385 kts 234°
2026-04-28 15:10 29.39173 111.71548 34251 ft 385 kts 234°
2026-04-28 15:10 29.36365 111.66349 34252 ft 386 kts 238°
2026-04-28 15:11 29.33981 111.60836 34250 ft 389 kts 244°
2026-04-28 15:11 29.31951 111.55093 34255 ft 391 kts 245°
2026-04-28 15:12 29.29939 111.49326 34255 ft 391 kts 245°
2026-04-28 15:12 29.27914 111.43516 34258 ft 392 kts 245°
2026-04-28 15:13 29.25906 111.37762 34260 ft 391 kts 245°
2026-04-28 15:13 29.23890 111.31986 34259 ft 391 kts 245°
2026-04-28 15:14 29.21870 111.26208 34263 ft 392 kts 245°
2026-04-28 15:14 29.19856 111.20453 34262 ft 392 kts 245°
2026-04-28 15:15 29.17817 111.14649 34269 ft 392 kts 245°
2026-04-28 15:15 29.15794 111.08885 34261 ft 392 kts 245°
2026-04-28 15:16 29.13751 111.03090 34263 ft 393 kts 245°
2026-04-28 15:16 29.11709 110.97299 34256 ft 394 kts 245°
2026-04-28 15:17 29.09676 110.91537 34267 ft 393 kts 245°
2026-04-28 15:17 29.07631 110.85751 34270 ft 394 kts 245°
2026-04-28 15:18 29.05570 110.79926 34264 ft 394 kts 245°
2026-04-28 15:18 29.03523 110.74157 34261 ft 395 kts 245°
2026-04-28 15:19 29.01479 110.68347 34263 ft 394 kts 245°
2026-04-28 15:19 28.99465 110.62569 34256 ft 394 kts 246°
2026-04-28 15:20 28.97433 110.56744 34257 ft 395 kts 246°
2026-04-28 15:20 28.95402 110.50938 34248 ft 395 kts 246°
2026-04-28 15:21 28.93379 110.45168 34250 ft 395 kts 246°
2026-04-28 15:21 28.91340 110.39362 34250 ft 395 kts 246°
2026-04-28 15:22 28.89289 110.33529 34257 ft 395 kts 245°
2026-04-28 15:22 28.87248 110.27728 34255 ft 396 kts 246°
2026-04-28 15:23 28.85208 110.21944 34254 ft 396 kts 245°
2026-04-28 15:23 28.83149 110.16118 34250 ft 395 kts 245°
2026-04-28 15:24 28.81088 110.10300 34247 ft 397 kts 246°
2026-04-28 15:24 28.79028 110.04487 34241 ft 397 kts 246°
2026-04-28 15:25 28.76950 109.98628 34248 ft 397 kts 246°
2026-04-28 15:25 28.74892 109.92841 34245 ft 396 kts 246°
2026-04-28 15:26 28.72811 109.87027 34251 ft 397 kts 245°
2026-04-28 15:26 28.70716 109.81249 34249 ft 397 kts 245°
2026-04-28 15:27 28.68604 109.75429 34254 ft 397 kts 245°
2026-04-28 15:27 28.66492 109.69620 34263 ft 397 kts 246°
2026-04-28 15:28 28.64419 109.63834 34262 ft 397 kts 247°
2026-04-28 15:28 28.62424 109.57967 34267 ft 398 kts 247°
2026-04-28 15:29 28.60420 109.52088 34262 ft 398 kts 247°
2026-04-28 15:29 28.58402 109.46256 34265 ft 397 kts 245°
2026-04-28 15:30 28.56040 109.40584 34258 ft 396 kts 243°
2026-04-28 15:30 28.53604 109.35017 34261 ft 396 kts 243°
2026-04-28 15:31 28.51146 109.29420 34270 ft 395 kts 242°
2026-04-28 15:31 28.48687 109.23826 34270 ft 395 kts 242°
2026-04-28 15:32 28.46238 109.18268 34275 ft 395 kts 242°
2026-04-28 15:32 28.43782 109.12713 34276 ft 394 kts 242°
2026-04-28 15:33 28.41308 109.07175 34271 ft 394 kts 242°
2026-04-28 15:33 28.38838 109.01653 34265 ft 394 kts 242°
2026-04-28 15:34 28.36352 108.96098 34260 ft 394 kts 242°
2026-04-28 15:34 28.33869 108.90557 34267 ft 395 kts 242°
2026-04-28 15:35 28.31392 108.85032 34259 ft 395 kts 242°
2026-04-28 15:35 28.27659 108.76699 34262 ft 394 kts 243°
2026-04-28 15:36 28.25206 108.71201 34263 ft 393 kts 243°
2026-04-28 15:36 28.22732 108.65668 34259 ft 393 kts 243°
2026-04-28 15:37 28.20262 108.60146 34257 ft 393 kts 243°
2026-04-28 15:37 28.18199 108.55542 34257 ft 393 kts 243°
2026-04-28 15:38 28.15326 108.49137 34251 ft 393 kts 243°
2026-04-28 15:38 28.12856 108.43641 34259 ft 394 kts 243°
2026-04-28 15:39 28.10368 108.38116 34259 ft 393 kts 243°
2026-04-28 15:39 28.07888 108.32609 34259 ft 393 kts 243°
2026-04-28 15:40 28.05397 108.27087 34249 ft 393 kts 243°
2026-04-28 15:40 28.02922 108.21610 34252 ft 393 kts 243°
2026-04-28 15:41 28.00439 108.16116 34254 ft 394 kts 243°
2026-04-28 15:41 27.97931 108.10580 34250 ft 394 kts 243°
2026-04-28 15:42 27.95438 108.05083 34251 ft 394 kts 243°
2026-04-28 15:42 27.92934 107.99571 34256 ft 395 kts 243°
2026-04-28 15:43 27.90428 107.94055 34255 ft 396 kts 243°
2026-04-28 15:43 27.87917 107.88538 34264 ft 395 kts 243°
2026-04-28 15:44 27.85417 107.83056 34267 ft 394 kts 244°
2026-04-28 15:44 27.82912 107.77571 34271 ft 393 kts 243°
2026-04-28 15:45 27.80453 107.72081 34270 ft 392 kts 244°
2026-04-28 15:45 27.78007 107.66588 34266 ft 391 kts 244°
2026-04-28 15:46 27.75564 107.61116 34268 ft 391 kts 244°
2026-04-28 15:46 27.73119 107.55653 34270 ft 391 kts 244°
2026-04-28 15:47 27.70670 107.50178 34268 ft 391 kts 244°
2026-04-28 15:47 27.68219 107.44715 34271 ft 390 kts 244°
2026-04-28 15:48 27.65769 107.39259 34271 ft 391 kts 244°
2026-04-28 15:48 27.63334 107.33839 34271 ft 390 kts 244°
2026-04-28 15:49 27.60884 107.28397 34266 ft 390 kts 244°
2026-04-28 15:49 27.58411 107.22915 34262 ft 391 kts 244°
2026-04-28 15:50 27.55959 107.17475 34269 ft 391 kts 244°
2026-04-28 15:50 27.53502 107.12033 34267 ft 390 kts 244°
2026-04-28 15:51 27.51050 107.06605 34267 ft 390 kts 245°
2026-04-28 15:51 27.48583 107.01152 34270 ft 390 kts 245°
2026-04-28 15:52 27.46137 106.95721 34269 ft 390 kts 245°
2026-04-28 15:52 27.43708 106.90276 34265 ft 390 kts 245°
2026-04-28 15:53 27.41280 106.84843 34270 ft 389 kts 245°
2026-04-28 15:53 27.38845 106.79405 34267 ft 389 kts 245°
2026-04-28 15:54 27.36416 106.73989 34276 ft 390 kts 245°
2026-04-28 15:54 27.33961 106.68553 34273 ft 390 kts 245°
2026-04-28 15:55 27.31520 106.63155 34274 ft 390 kts 245°
2026-04-28 15:55 27.29055 106.57708 34273 ft 391 kts 245°
2026-04-28 15:56 27.26605 106.52299 34279 ft 390 kts 245°
2026-04-28 15:56 27.24147 106.46882 34273 ft 389 kts 245°
2026-04-28 15:57 27.21692 106.41475 34286 ft 390 kts 244°
2026-04-28 15:57 27.19224 106.36051 34289 ft 390 kts 245°
2026-04-28 15:58 27.16768 106.30653 34300 ft 390 kts 245°
2026-04-28 15:58 27.14299 106.25230 34300 ft 390 kts 244°
2026-04-28 15:59 27.12245 106.20718 34303 ft 390 kts 244°
2026-04-28 15:59 27.09364 106.14406 34305 ft 389 kts 244°
2026-04-28 16:00 27.06903 106.08984 34301 ft 390 kts 245°
2026-04-28 16:00 27.04796 106.03399 34305 ft 389 kts 251°
2026-04-28 16:01 27.03205 105.97648 34309 ft 389 kts 256°
2026-04-28 16:01 27.02036 105.91740 34314 ft 389 kts 257°
2026-04-28 16:02 27.00903 105.85805 34312 ft 389 kts 258°
2026-04-28 16:02 26.99783 105.79889 34315 ft 388 kts 258°
2026-04-28 16:03 26.98661 105.73988 34318 ft 389 kts 258°
2026-04-28 16:03 26.97542 105.68101 34313 ft 389 kts 258°
2026-04-28 16:04 26.96413 105.62181 34318 ft 389 kts 258°
2026-04-28 16:04 26.95470 105.57252 34318 ft 389 kts 258°
2026-04-28 16:05 26.94145 105.50343 34320 ft 389 kts 258°
2026-04-28 16:05 26.93012 105.44458 34320 ft 390 kts 258°
2026-04-28 16:06 26.91867 105.38519 34320 ft 389 kts 258°
2026-04-28 16:06 26.90734 105.32645 34327 ft 388 kts 257°
2026-04-28 16:07 26.89595 105.26766 34322 ft 388 kts 257°
2026-04-28 16:08 26.87872 105.17901 34315 ft 388 kts 257°
2026-04-28 16:08 26.86707 105.12023 34315 ft 389 kts 257°
2026-04-28 16:09 26.84939 105.03158 34316 ft 389 kts 257°
2026-04-28 16:10 26.83176 104.94333 34320 ft 388 kts 257°
2026-04-28 16:10 26.81416 104.85539 34331 ft 386 kts 257°
2026-04-28 16:11 26.79079 104.73827 34343 ft 386 kts 257°
2026-04-28 16:12 26.76627 104.65292 34341 ft 388 kts 246°
2026-04-28 16:13 26.72070 104.57764 34359 ft 394 kts 231°
2026-04-28 16:14 26.63732 104.49698 34356 ft 398 kts 224°
2026-04-28 16:15 26.55104 104.41859 34347 ft 400 kts 224°
2026-04-28 16:15 26.50802 104.37957 34342 ft 400 kts 225°
2026-04-28 16:16 26.44323 104.32091 34341 ft 400 kts 225°
2026-04-28 16:17 26.37822 104.26215 34346 ft 401 kts 224°
2026-04-28 16:17 26.33488 104.22302 34353 ft 402 kts 224°
2026-04-28 16:18 26.29149 104.18392 34354 ft 400 kts 224°
2026-04-28 16:18 26.24837 104.14507 34358 ft 401 kts 224°
2026-04-28 16:19 26.20471 104.10575 34357 ft 402 kts 224°
2026-04-28 16:19 26.16134 104.06675 34361 ft 402 kts 225°
2026-04-28 16:20 26.11790 104.02770 34361 ft 403 kts 224°
2026-04-28 16:20 26.07431 103.98860 34362 ft 403 kts 224°
2026-04-28 16:21 26.03104 103.94908 34352 ft 401 kts 227°
2026-04-28 16:21 25.99142 103.90582 34352 ft 397 kts 232°
2026-04-28 16:22 25.95659 103.85874 34351 ft 393 kts 238°
2026-04-28 16:22 25.92669 103.80813 34369 ft 390 kts 244°
2026-04-28 16:23 25.89612 103.75832 34374 ft 394 kts 236°
2026-04-28 16:23 25.85863 103.71375 34361 ft 401 kts 228°
2026-04-28 16:24 25.83728 103.69350 34096 ft 404 kts 224°
2026-04-28 16:24 25.81458 103.67493 33824 ft 403 kts 221°
2026-04-28 16:24 25.79180 103.65704 33557 ft 400 kts 221°
2026-04-28 16:24 25.76913 103.63930 33291 ft 399 kts 221°
2026-04-28 16:25 25.74645 103.62155 33023 ft 397 kts 220°
2026-04-28 16:25 25.72410 103.60407 32767 ft 397 kts 220°
2026-04-28 16:25 25.70143 103.58638 32506 ft 397 kts 220°
2026-04-28 16:25 25.67890 103.56877 32250 ft 398 kts 220°
2026-04-28 16:26 25.65620 103.55112 31996 ft 398 kts 220°
2026-04-28 16:26 25.63349 103.53339 31732 ft 399 kts 219°
2026-04-28 16:26 25.61093 103.51581 31474 ft 401 kts 220°
2026-04-28 16:26 25.58824 103.49814 31220 ft 400 kts 219°
2026-04-28 16:27 25.56528 103.48028 30954 ft 401 kts 219°
2026-04-28 16:27 25.54228 103.46237 30693 ft 402 kts 219°
2026-04-28 16:27 25.49654 103.42679 30168 ft 402 kts 219°
2026-04-28 16:28 25.47361 103.40900 29919 ft 404 kts 218°
2026-04-28 16:28 25.45850 103.39728 29745 ft 404 kts 218°
2026-04-28 16:28 25.42761 103.37332 29224 ft 405 kts 218°
2026-04-28 16:28 25.40461 103.35545 28690 ft 407 kts 218°
2026-04-28 16:29 25.35829 103.31958 27336 ft 410 kts 218°
2026-04-28 16:29 25.31123 103.28317 25958 ft 411 kts 218°
2026-04-28 16:30 25.28781 103.26505 25434 ft 408 kts 218°
2026-04-28 16:30 25.26470 103.24720 24935 ft 405 kts 218°
2026-04-28 16:30 25.24178 103.22951 24440 ft 402 kts 219°
2026-04-28 16:30 25.21895 103.21188 23939 ft 400 kts 219°
2026-04-28 16:31 25.19614 103.19426 23445 ft 398 kts 219°
2026-04-28 16:31 25.17360 103.17685 22944 ft 397 kts 219°
2026-04-28 16:31 25.15109 103.15946 22444 ft 396 kts 219°
2026-04-28 16:31 25.12832 103.14188 21940 ft 395 kts 219°
2026-04-28 16:32 25.10600 103.12463 21441 ft 394 kts 219°
2026-04-28 16:32 25.06135 103.09021 20446 ft 391 kts 218°
2026-04-28 16:32 25.03914 103.07310 19939 ft 390 kts 218°
2026-04-28 16:33 25.01697 103.05605 19437 ft 388 kts 218°
2026-04-28 16:33 25.00949 103.05030 19270 ft 387 kts 218°
2026-04-28 16:33 24.97295 103.02218 18437 ft 384 kts 218°
2026-04-28 16:33 24.95102 103.00533 17930 ft 381 kts 218°
2026-04-28 16:34 24.92929 102.98862 17429 ft 380 kts 218°
2026-04-28 16:34 24.90797 102.97227 16933 ft 377 kts 218°
2026-04-28 16:34 24.88642 102.95573 16497 ft 372 kts 217°
2026-04-28 16:34 24.86529 102.93953 16161 ft 363 kts 217°
2026-04-28 16:35 24.84497 102.92396 15923 ft 352 kts 217°
2026-04-28 16:35 24.82519 102.90881 15708 ft 337 kts 217°
2026-04-28 16:35 24.80647 102.89450 15581 ft 319 kts 218°
2026-04-28 16:35 24.78873 102.88090 15446 ft 302 kts 218°
2026-04-28 16:36 24.77188 102.86800 15314 ft 286 kts 218°
2026-04-28 16:36 24.75605 102.85589 15196 ft 272 kts 218°
2026-04-28 16:36 24.74077 102.84418 15086 ft 260 kts 218°
2026-04-28 16:36 24.72611 102.83296 15009 ft 256 kts 218°
2026-04-28 16:37 24.71160 102.82170 14914 ft 255 kts 222°
2026-04-28 16:37 24.70084 102.80677 14780 ft 250 kts 252°
2026-04-28 16:37 24.69853 102.78799 14603 ft 252 kts 277°
2026-04-28 16:38 24.71585 102.75480 13907 ft 255 kts 306°
2026-04-28 16:38 24.72694 102.73962 13584 ft 254 kts 306°
2026-04-28 16:38 24.73786 102.72443 13268 ft 253 kts 306°
2026-04-28 16:38 24.74875 102.70925 12958 ft 252 kts 306°
2026-04-28 16:39 24.75961 102.69408 12660 ft 250 kts 307°
2026-04-28 16:39 24.77038 102.67909 12375 ft 249 kts 309°
2026-04-28 16:39 24.78410 102.66752 12044 ft 253 kts 338°
2026-04-28 16:39 24.80145 102.66497 11721 ft 255 kts
2026-04-28 16:40 24.81806 102.67104 11404 ft 255 kts 30°
2026-04-28 16:40 24.83289 102.68197 11107 ft 253 kts 38°
2026-04-28 16:40 24.84664 102.69369 10813 ft 251 kts 40°
2026-04-28 16:40 24.86025 102.70567 10529 ft 248 kts 40°
2026-04-28 16:41 24.87365 102.71748 10269 ft 244 kts 40°
2026-04-28 16:41 24.88683 102.72909 9989 ft 241 kts 40°
2026-04-28 16:41 24.89973 102.74038 9851 ft 232 kts 39°
2026-04-28 16:41 24.91227 102.75134 9850 ft 228 kts 40°
2026-04-28 16:42 24.92474 102.76224 9852 ft 228 kts 40°
2026-04-28 16:42 24.93718 102.77309 9853 ft 229 kts 39°
2026-04-28 16:42 24.94962 102.78394 9849 ft 225 kts 39°
2026-04-28 16:42 24.96156 102.79434 9840 ft 211 kts 39°
2026-04-28 16:43 24.97249 102.80387 9980 ft 189 kts 39°
2026-04-28 16:43 24.98251 102.81259 9873 ft 176 kts 39°
2026-04-28 16:43 24.99191 102.82080 9680 ft 167 kts 39°
2026-04-28 16:43 25.00069 102.82845 9466 ft 156 kts 39°
2026-04-28 16:44 25.00905 102.83573 9251 ft 150 kts 40°
2026-04-28 16:44 25.01713 102.84278 9053 ft 148 kts 39°
2026-04-28 16:44 25.02527 102.84988 8861 ft 148 kts 39°
2026-04-28 16:44 25.03328 102.85685 8679 ft 147 kts 39°
2026-04-28 16:45 25.04136 102.86389 8488 ft 146 kts 39°
2026-04-28 16:45 25.04931 102.87083 8302 ft 146 kts 39°
2026-04-28 16:45 25.05724 102.87773 8113 ft 145 kts 39°
2026-04-28 16:45 25.06515 102.88462 7923 ft 145 kts 39°
2026-04-28 16:46 25.07313 102.89157 7733 ft 144 kts 39°
2026-04-28 16:46 25.08097 102.89842 7539 ft 143 kts 40°
2026-04-28 16:46 25.08878 102.90517 7349 ft 143 kts 39°
2026-04-28 16:46 25.09651 102.91207 7171 ft 142 kts 39°
2026-04-28 16:47 25.10420 102.91868 6980 ft 139 kts 38°
2026-04-28 16:47 25.11139 102.92488 6912 ft 117 kts 40°
2026-04-28 16:47 25.11645 102.92934 6912 ft 64 kts 37°
2026-04-28 16:47 25.11849 102.93114 6912 ft 23 kts 40°
2026-04-28 16:48 25.11955 102.93242 6912 ft 20 kts 57°
2026-04-28 16:48 25.12001 102.93333 6911 ft 13 kts 65°
2026-04-28 16:48 25.12024 102.93407 6911 ft 9 kts 96°
2026-04-28 16:48 25.11973 102.93446 6911 ft 10 kts 188°
2026-04-28 16:49 25.11909 102.93408 6912 ft 10 kts 218°
2026-04-28 16:49 25.11847 102.93352 6912 ft 12 kts 220°
2026-04-28 16:49 25.11774 102.93286 6912 ft 14 kts 219°
2026-04-28 16:49 25.11687 102.93212 6912 ft 17 kts 218°
2026-04-28 16:50 25.11592 102.93128 6912 ft 17 kts 219°
2026-04-28 16:50 25.11495 102.93043 6911 ft 17 kts 216°
2026-04-28 16:50 25.11399 102.92960 6912 ft 17 kts 220°
2026-04-28 16:50 25.11303 102.92880 6912 ft 17 kts 217°
2026-04-28 16:51 25.11211 102.92797 6912 ft 17 kts 218°
2026-04-28 16:51 25.11116 102.92716 6912 ft 17 kts 218°
2026-04-28 16:51 25.11023 102.92635 6912 ft 17 kts 219°
2026-04-28 16:51 25.10929 102.92554 6912 ft 17 kts 219°
2026-04-28 16:52 25.10846 102.92519 6911 ft 12 kts 154°
2026-04-28 16:52 25.10782 102.92586 6911 ft 12 kts 131°
2026-04-28 16:52 25.10722 102.92660 6911 ft 13 kts 135°
2026-04-28 16:52 25.10644 102.92711 6911 ft 13 kts 153°
2026-04-28 16:53 25.10560 102.92757 6911 ft 13 kts 153°
2026-04-28 16:53 25.10529 102.92796 6911 ft 6 kts 90°
2026-04-28 16:53 25.10540 102.92838 6911 ft 2 kts 64°
2026-04-28 16:53 25.10547 102.92854 6911 ft 0 kts 63°
2026-04-28 16:54 25.10548 102.92856 6911 ft 0 kts 63°